EHI
0 0 0 0 0 0 0 0 0 0 0 0 0 0 0 1 2 3 2 1 0 0 1 0 0 0 0 0 0 0 0 0 0 0 0 0 0 0 0 0 0 0 0
0 0 0 0 0 0 0 0 0 0 0 0 0 0 0 0 1 2 1 0 0 0 1 0 0 0 0 0 0 0 0 0 0 0 0 0 0 0 0 0 0 0 0
0 0 0 0 0 0 0 0 0 0 0 0 0 0 0 0 0 0 0 0 0 0 0 0 0 0 0 0 0 0 0 0 0 0 0 0 0 0 0 0 0 0 0
0 0 0 0 0 0 0 0 0 0 0 0 0 0 0 0 0 0 0 0 0 0 0 0 0 0 0 0 0 0 0 0 0 0 0 0 0 0 0 0 0 0 0
0 0 0 0 0 0 0 0 0 0 0 0 0 0 0 0 0 0 0 0 0 0 0 0 0 0 0 0 0 0 0 0 0 0 0 0 0 0 0 0 0 0 0
0 0 0 0 0 0 0 0 0 0 0 0 0 0 0 0 0 0 0 0 0 0 0 0 0 0 0 0 0 0 0 0 0 0 0 0 0 0 0 0 0 0 0
0 0 0 0 0 0 0 0 0 0 0 0 0 0 0 0 0 0 0 0 0 0 0 0 0 0 0 0 0 0 0 0 0 0 0 0 0 0 0 0 0 0 0
0 0 0 0 0 0 0 0 0 0 0 0 0 0 0 0 0 0 0 0 0 0 0 0 0 0 0 0 0 0 0 0 0 0 0 0 0 0 0 0 0 0 0
0 0 0 0 0 0 0 0 0 0 0 0 0 0 0 0 0 0 0 0 0 0 0 0 0 0 0 0 0 0 0 0 0 0 0 0 0 0 0 0 0 0 0
0 0 0 0 0 0 0 0 0 0 0 0 0 0 0 0 0 0 0 0 0 0 0 0 0 0 0 0 0 0 0 0 0 0 0 0 0 0 0 0 0 0 0
0 0 0 0 0 0 0 0 0 0 0 0 0 0 0 0 0 0 0 0 0 0 0 0 0 0 0 0 0 0 0 0 0 0 0 0 0 0 0 0 0 0 0
0 0 0 0 0 0 0 0 0 0 0 0 0 0 0 0 0 0 0 0 0 0 0 0 0 0 0 0 0 0 0 0 0 0 0 0 0 0 0 0 0 0 0
0 0 0 0 0 0 0 0 0 0 0 0 0 0 0 0 0 0 0 0 0 0 0 0 0 0 0 0 0 0 0 0 0 0 0 0 0 0 0 0 0 0 0
0 0 0 0 0 0 0 0 0 0 0 0 0 0 0 0 0 0 0 0 0 0 0 0 0 0 0 0 0 0 0 0 0 0 0 0 0 0 0 0 0 0 0
0 0 0 0 0 0 0 0 0 0 0 0 0 0 0 0 0 0 0 0 0 0 0 0 0 0 0 0 0 0 0 0 0 0 0 0 0 0 0 0 0 0 0
0 0 0 0 0 0 0 0 0 0 0 0 0 0 0 0 0 0 0 0 0 0 0 0 0 0 0 0 0 0 0 0 0 0 0 0 0 0 0 0 0 0 0
0 0 0 0 0 0 0 0 0 0 0 0 0 0 0 0 0 0 0 0 0 0 0 0 0 0 0 0 0 0 0 0 0 0 0 0 0 0 0 0 0 0 0
0 0 0 0 0 0 0 0 0 0 0 0 0 0 0 0 0 0 0 0 0 0 0 0 0 0 0 0 0 0 0 0 0 0 0 0 0 0 0 0 0 0 0
0 0 0 0 0 0 0 0 0 0 0 0 0 0 0 0 0 0 0 0 0 0 0 0 0 0 0 0 0 0 0 0 0 0 0 0 0 0 0 0 0 0 0
0 0 0 0 0 0 0 0 0 0 0 0 0 0 0 0 0 0 0 0 0 0 0 0 0 0 0 0 0 0 0 0 0 0 0 0 0 0 0 0 0 0 0
0 0 0 0 0 0 0 0 0 0 0 0 0 0 0 0 0 0 0 0 0 0 0 0 0 0 0 0 0 0 0 0 0 0 0 0 0 0 0 0 0 0 0
0 0 0 0 0 0 0 0 0 0 0 0 0 0 0 0 0 0 0 0 0 0 0 0 0 0 0 0 0 0 0 0 0 0 0 0 0 0 0 0 0 0 0
0 0 0 0 0 0 0 0 0 0 0 0 0 0 0 0 0 0 0 0 0 0 0 0 0 0 0 0 0 0 0 0 0 0 0 0 0 0 0 0 0 0 0
0 0 0 0 0 0 0 0 0 0 0 0 0 0 0 0 0 0 0 0 0 0 0 0 0 0 0 0 0 0 0 0 0 0 0 0 0 0 0 0 0 0 0
0 0 0 0 0 0 0 0 0 0 0 0 0 0 0 0 0 0 0 0 0 0 0 0 0 0 0 0 0 0 0 0 0 0 0 0 0 0 0 0 0 0 0
0 0 0 0 0 0 0 0 0 0 0 0 0 0 0 0 0 0 0 0 0 0 0 0 0 0 0 0 0 0 0 0 0 0 0 0 0 0 0 0 0 0 0
Wind_Speed
6 6 7 7 7 7 8 8 7 7 6 4 4 4 3 2 2 2 4 6 6 7 6 5 5 5 4 4 4 3 3 2 2 1 1 2 2 3 4 4 4 5 5
8 8 8 8 7 7 7 7 7 7 7 4 3 2 2 2 2 3 3 3 4 5 5 5 5 5 4 4 4 3 3 2 3 3 1 2 2 2 1 1 2 2 2
7 7 7 6 6 6 5 5 6 6 6 6 3 2 2 2 3 4 4 5 4 3 4 5 5 5 5 5 6 5 5 4 2 2 3 3 2 2 2 1 1 1 1
4 4 5 5 5 4 4 4 4 4 5 5 4 5 3 2 3 3 4 5 5 4 2 2 4 5 5 5 6 6 4 5 3 2 2 2 3 2 1 2 2 2 3
3 4 5 5 6 5 5 4 4 3 3 3 3 3 2 1 2 3 5 5 6 6 5 4 2 3 4 5 6 6 6 5 5 4 3 2 1 2 2 2 3 3 3
4 5 6 6 7 6 6 5 4 4 4 2 1 1 1 1 2 3 4 4 3 4 5 5 4 3 3 5 6 7 8 6 5 4 4 4 3 3 4 4 3 3 3
5 6 8 8 8 8 7 6 6 6 5 4 3 3 3 3 3 3 2 2 2 3 4 4 4 4 4 5 5 6 7 8 7 7 5 5 4 3 3 3 3 3 3
6 8 9 9 8 9 8 7 7 7 7 6 6 5 5 4 4 4 4 3 3 3 4 4 4 4 4 4 5 6 7 7 8 8 7 5 5 5 5 4 3 2 2
7 8 8 8 8 8 9 8 8 8 8 8 7 7 7 6 6 6 5 4 4 4 4 4 4 4 4 3 3 4 6 6 8 8 8 6 5 5 5 5 4 3 2
8 8 7 7 7 7 8 8 8 9 9 9 8 8 8 8 7 6 7 7 7 6 5 5 5 5 4 4 3 3 4 6 6 6 7 7 5 5 5 5 5 5 4
8 8 7 7 8 8 8 9 9 10 10 10 10 9 9 8 7 7 9 8 7 7 7 6 6 5 5 4 3 3 3 4 5 6 7 8 7 6 6 5 6 6 5
8 8 8 8 8 9 10 10 10 11 12 11 11 11 11 9 8 9 10 9 9 8 8 7 6 7 6 5 5 5 3 3 4 5 6 7 6 8 6 6 7 6 6
8 8 8 9 9 10 10 11 11 12 12 12 11 12 12 11 11 11 11 10 10 9 8 7 8 8 7 6 6 6 5 5 4 4 5 6 6 8 6 7 7 6 5
9 9 9 10 10 10 10 11 12 12 12 12 12 13 14 14 13 11 10 10 10 9 9 9 9 9 8 7 7 6 6 6 6 5 5 5 7 8 8 7 8 7 6
10 10 10 9 9 9 9 9 11 11 11 11 12 13 14 13 13 12 11 10 10 11 10 9 9 8 7 8 8 7 7 6 6 6 6 6 8 10 8 7 8 8 7
10 10 10 10 10 10 10 10 10 11 10 11 13 13 13 13 13 12 11 10 10 9 9 9 9 9 8 10 13 9 7 6 6 6 6 6 8 10 11 13 12 12 10
11 11 11 11 11 11 11 11 11 11 11 12 13 13 12 13 12 13 12 10 9 9 9 9 9 9 10 13 13 13 8 7 7 7 6 5 5 7 7 9 12 13 14
10 10 10 11 11 11 12 12 12 12 13 13 13 13 12 13 12 11 11 10 8 7 8 9 9 9 10 12 13 13 9 7 8 8 7 7 6 6 6 6 8 8 10
10 11 12 13 11 12 12 12 13 13 13 14 14 13 13 13 13 12 11 10 8 7 7 7 8 8 9 11 12 10 5 6 8 7 7 7 7 8 8 8 8 8 8
10 11 12 12 12 12 12 12 14 14 14 14 14 14 13 14 14 13 11 9 8 8 8 8 8 8 8 10 12 10 5 6 6 5 5 7 8 7 8 8 8 9 8
13 12 12 12 12 12 11 13 14 14 14 14 14 14 13 13 13 12 10 9 8 8 8 8 7 7 9 10 12 11 6 7 6 5 4 5 7 8 8 9 8 8 7
12 11 11 13 12 11 11 13 14 14 13 13 13 13 12 11 10 9 8 8 8 7 7 6 7 6 7 8 10 12 12 10 7 6 5 4 6 7 7 7 7 9 9
11 11 12 14 13 11 11 14 15 14 13 13 13 12 12 10 9 8 8 6 6 5 5 5 6 5 5 6 10 11 12 13 7 5 6 6 5 5 5 6 8 9 8
12 11 13 14 14 13 13 13 14 13 13 13 12 11 10 9 8 6 6 5 4 5 5 6 6 5 4 4 4 5 6 8 7 5 5 5 4 3 3 3 5 6 6
10 11 12 14 15 15 15 14 13 13 13 12 11 10 9 9 7 6 5 5 5 5 5 5 5 5 5 6 8 6 5 6 6 6 3 3 3 3 3 3 4 4 5
12 12 13 14 15 15 15 14 12 12 12 10 9 7 7 7 6 6 6 5 5 6 7 6 4 4 5 5 7 9 7 8 10 7 4 4 4 4 4 4 4 4 5
Wind_Direction
30 24 22 23 24 17 16 14 10 357 351 340 335 335 348 358 336 288 246 237 240 231 208 203 187 179 183 188 180 165 176 187 160 151 294 297 266 256 249 245 246 251 252
21 17 16 16 15 11 8 6 5 1 357 347 329 330 331 334 322 317 307 280 249 232 216 203 192 184 180 182 182 170 166 180 171 161 160 310 330 314 290 266 227 244 264
16 0 359 358 357 0 355 356 356 358 356 354 356 2 15 2 5 350 345 332 309 260 225 211 200 192 185 189 190 182 173 181 192 189 162 171 227 296 316 315 305 303 293
357 333 329 328 326 320 320 331 342 349 350 1 33 46 45 20 344 330 336 337 345 344 320 261 226 208 201 198 196 190 180 166 180 198 204 183 170 180 305 317 320 315 290
301 295 295 291 291 290 294 300 313 322 330 2 39 56 52 357 316 330 346 353 352 358 1 344 294 245 225 217 205 189 188 183 176 176 170 177 185 183 196 269 307 311 287
281 284 284 283 282 279 276 277 284 289 296 313 335 118 142 296 328 334 338 340 337 343 355 353 338 299 260 235 222 208 197 195 186 181 177 173 173 184 192 223 256 284 289
267 276 279 279 278 280 276 273 273 276 280 283 278 261 247 245 253 265 280 298 313 315 323 336 325 311 286 261 236 219 211 199 196 193 194 196 200 176 174 197 236 267 290
265 268 270 272 277 284 287 284 280 279 280 277 273 268 259 248 247 248 248 251 249 260 276 295 300 302 302 286 252 230 222 208 205 203 197 196 204 193 187 187 192 242 270
277 277 281 288 292 294 293 289 283 281 278 272 268 267 261 251 250 250 248 249 250 257 264 280 285 290 294 292 278 248 234 218 213 209 204 202 200 195 198 195 190 197 236
292 293 297 299 297 294 292 291 281 273 274 273 266 264 254 249 247 248 249 247 248 250 262 270 274 277 277 277 271 265 254 233 224 213 208 210 203 196 195 196 198 200 207
293 296 299 295 293 294 290 286 282 278 277 275 272 269 262 252 245 242 246 246 245 242 244 251 259 265 266 260 257 255 253 249 238 224 217 218 206 200 196 191 192 198 202
290 290 290 290 291 290 288 285 282 278 275 273 272 271 269 262 249 244 245 241 240 238 236 241 249 257 258 248 243 251 245 244 257 244 226 224 214 211 199 192 196 197 200
300 298 296 293 292 291 290 289 287 284 283 283 280 278 275 270 260 250 244 238 234 236 233 229 237 247 251 248 243 239 236 226 231 249 244 234 219 219 206 198 199 197 194
295 293 293 291 290 291 291 292 292 292 293 293 288 283 278 274 268 259 247 239 232 230 231 228 230 236 243 246 245 240 238 233 223 223 238 244 228 225 213 204 202 191 188
295 293 292 291 291 292 292 292 293 294 295 295 292 288 285 281 276 269 258 246 234 231 228 227 229 232 235 240 237 234 236 231 229 226 223 233 241 238 222 206 198 188 190
299 300 298 298 299 298 299 298 296 294 293 292 291 290 289 287 282 276 268 257 244 234 225 223 225 227 232 235 232 223 225 228 229 235 234 235 243 243 233 221 204 192 191
303 301 301 299 299 300 300 299 293 294 292 290 290 290 289 288 286 284 278 264 251 239 228 224 221 225 231 236 241 238 225 225 229 232 236 245 239 237 230 224 213 207 204
296 299 300 300 297 296 298 297 298 297 295 293 290 289 288 287 285 283 280 273 261 246 237 229 221 220 231 233 238 243 235 227 231 231 231 236 246 237 226 216 215 214 213
298 300 301 301 298 299 301 302 303 301 300 299 296 293 289 287 284 280 276 272 264 254 242 233 222 219 231 234 237 237 223 226 232 232 231 230 240 240 225 217 215 216 219
300 300 299 300 301 302 304 306 307 306 304 303 300 296 288 283 281 277 273 269 261 254 248 240 225 221 230 235 237 231 215 223 229 230 229 231 234 238 221 218 214 217 213
298 300 302 305 304 305 307 307 308 306 306 305 302 298 291 285 281 276 269 263 257 250 241 239 235 228 230 237 237 229 211 214 218 220 221 226 227 229 221 218 221 217 198
303 305 306 309 309 309 310 310 308 307 307 306 303 301 298 293 292 282 273 264 253 243 238 235 240 238 233 233 238 231 218 207 207 212 215 222 226 226 222 217 223 206 190
306 309 310 311 312 313 312 310 309 310 310 308 305 304 304 301 293 285 280 270 254 239 230 228 236 240 232 232 233 231 220 206 202 207 207 211 222 223 222 222 211 194 192
311 312 315 315 315 316 315 309 309 311 311 310 309 308 309 307 301 289 280 270 254 241 230 226 230 233 232 228 221 215 209 202 199 196 193 194 204 207 213 203 199 201 194
310 311 315 316 315 317 315 313 313 315 315 314 312 312 309 308 307 300 286 273 256 244 230 225 218 218 228 226 207 193 189 183 182 165 165 183 189 202 207 197 186 192 178
312 315 317 318 317 317 315 315 317 319 318 318 318 314 314 315 315 315 313 290 270 263 239 235 230 231 235 237 209 204 195 175 162 161 179 193 197 202 203 191 175 181 167